Regional Weather Roundup
Issued by NWS

Home | Current Version | Previous Version | Graphics & Text | Print | Product List | Glossary On
Versions: 1 2 3 4 5 6 7 8 9 10 11 12 13 14 15 16 17 18 19 20 21 22 23 24 25 26 27 28 29 30 31 32 33 34 35 36 37 38 39 40 41 42 43 44 45 46 47 48 49 50
000
ASUS44 KMEG 240200
RWRTN
TENNESSEE HOURLY STATE WEATHER ROUNDUP
NATIONAL WEATHER SERVICE MEMPHIS TN
800 PM CST THU FEB 23 2017

TNZ002-004-019-021-049-052-054-088>092-240300-
WEST TENNESSEE

CITY           SKY/WX    TMP DP  RH WIND       PRES   REMARKS
MEMPHIS INTL   PTCLDY    69  54  58 SE10      29.67R
NWS MEMPHIS      N/A     68 N/A N/A MISG        N/A
JACKSON        CLEAR     66  58  75 S7        29.69F
UNION CITY     CLEAR     64  55  72 CALM      29.65S
PARIS          CLEAR     63  54  72 S10       29.69F
$$

TNZ008-025-027-028-033-062-065-066-240300-
NORTH MIDDLE TENNESSEE

CITY           SKY/WX    TMP DP  RH WIND       PRES   REMARKS
NASHVILLE      PTCLDY    63  53  70 S7        29.76R
CLARKSVILLE    CLEAR     67  53  61 S7        29.72S
SMYRNA         CLEAR     64  54  69 S6        29.77S
CROSSVILLE     CLEAR     60  51  72 S3        29.84S
$$

TNZ061-075-076-078-094-096-097-240300-
SOUTH MIDDLE TENNESSEE

CITY           SKY/WX    TMP DP  RH WIND       PRES   REMARKS
TULLAHOMA      CLEAR     63  52  67 S5        29.81R
WINCHESTER     CLEAR     57  52  82 CALM      29.82R
MCMINNVILLE    CLEAR     59  54  82 CALM      29.80S
COLUMBIA       CLEAR     64  63  94 SE5       29.74S
SHELBYVILLE    CLEAR     63  55  77 SE5       29.79S
$$

TNZ017-018-042-046-047-240300-
NORTHEAST TENNESSEE

CITY           SKY/WX    TMP DP  RH WIND       PRES   REMARKS
TRI CITIES     PTCLDY    61  50  67 E3        29.86F
$$

TNZ012-013-036-069-073-074-240300-
CENTRAL EAST TENNESSEE

CITY           SKY/WX    TMP DP  RH WIND       PRES   REMARKS
KNOXVILLE      NOT AVBL
OAK RIDGE      PTCLDY    60  54  80 CALM      29.84R
GATLINBURG     CLEAR     57  52  82 CALM      29.83S
$$

TNZ083-085-099-240300-
SOUTHEAST TENNESSEE

CITY           SKY/WX    TMP DP  RH WIND       PRES   REMARKS
CHATTANOOGA    PTCLDY    60  53  77 CALM      29.82R
$$

SKY/WX REPORTED AS FAIR MEANS FEW OR NO CLOUDS BELOW
12 THOUSAND FEET.




USA.gov is the U.S. government's official web portal to all federal, state and local government web resources and services.